[[{"header":{"parameterUnit":"m.s-1","parameterCategory":1,"la1":30.2991,"la2":30.254,"lo1":-89.0895,"lo2":-89.0444,"dy":0.0017,"dx":0.0017,"nx":28,"ny":28,"refTime":"2024-03-11T21:00:00:Z","depth":0,"parameterNumber":2,"parameterNumberName":"U-component_of_WINDS"},"data":[0,0,0,0,0,0,0,0,0,0,0,0,0,0,0,0,0,0,0,0,0,0,0,0,0,0,0,0,0,0,0,0,0,0,0,0,0,0,0,0,0,0,0,0,0,0,0,0,0,0,0,0,0,0,0,0,0,0,-1.4537,-1.4538,0,-1.4588,-1.4588,-1.4589,-1.4587,-1.4586,-1.4585,-1.4584,-1.4638,-1.464,-1.4642,0,0,0,0,0,0,0,0,0,0,0,0,0,-1.4441,-1.4443,-1.4537,-1.4538,-1.4538,-1.4588,-1.4588,-1.4589,-1.4587,-1.4586,-1.4585,-1.4584,-1.4637,-1.464,-1.4642,0,0,0,0,0,0,0,0,0,0,0,0,0,-1.4486,-1.4444,-1.4537,-1.4543,-1.4544,-1.4587,-1.4588,-1.4589,-1.4587,-1.4586,-1.4585,-1.4584,-1.4636,-1.4639,-1.4643,-1.4683,0,0,-1.4652,-1.4653,0,0,0,0,0,0,0,0,-1.4484,-1.449,-1.4542,-1.4543,-1.4544,-1.458,-1.4574,-1.4621,-1.4587,-1.4571,-1.4584,-1.4583,-1.462,-1.4624,-1.4636,-1.4686,-1.4688,-1.4652,-1.4654,-1.4656,-1.4657,0,0,0,0,0,0,0,-1.4481,-1.4488,-1.4557,-1.4542,-1.4544,-1.4544,-1.4549,-1.4583,-1.4601,-1.4572,-1.4572,-1.4578,-1.462,-1.4633,-1.4637,-1.4689,-1.4652,-1.4655,-1.4657,-1.4658,-1.4776,-1.4777,0,0,0,0,0,0,-1.4476,-1.4485,-1.4556,-1.4559,-1.4511,-1.4547,-1.4553,-1.4569,-1.46,-1.4604,-1.4579,-1.4578,-1.4628,-1.4633,-1.4639,-1.4689,-1.4656,-1.4659,-1.466,-1.4775,-1.4776,-1.4778,0,0,0,0,0,0,-1.4474,-1.4482,-1.4554,-1.4522,-1.4531,-1.455,-1.4568,-1.4571,-1.4584,-1.4605,-1.4609,-1.4589,-1.4627,-1.4635,-1.4672,-1.4691,-1.466,-1.4663,-1.4773,-1.4775,-1.4777,-1.4789,0,0,0,0,0,0,-1.4471,-1.4482,-1.4497,-1.4522,-1.4533,-1.4585,-1.457,-1.4573,-1.4589,-1.4588,-1.4615,-1.4619,-1.4627,-1.4668,-1.4676,-1.4695,-1.4665,-1.4772,-1.4774,-1.4776,-1.4787,-1.4791,-1.4795,0,0,0,0,0,-1.4468,-1.4498,-1.4497,-1.4506,-1.4552,-1.4586,-1.4592,-1.4601,-1.459,-1.4606,-1.462,-1.4618,-1.4688,-1.4672,-1.468,-1.4701,-1.477,-1.4773,-1.4776,-1.4785,-1.479,-1.4795,0,0,0,0,0,0,-1.4475,-1.4502,-1.4501,-1.4541,-1.4561,-1.4586,-1.4606,-1.4606,-1.463,-1.4628,-1.4638,-1.4645,-1.4682,-1.4696,-1.4677,-1.4742,-1.4728,-1.4733,-1.4732,-1.4737,-1.4741,-1.4736,-1.4668,0,0,0,0,0,-1.4481,-1.4506,-1.4529,-1.4562,-1.4572,-1.4587,-1.4603,-1.4607,-1.4629,-1.4638,-1.4655,-1.4677,-1.4704,-1.4721,-1.4747,-1.4789,-1.4796,-1.4808,-1.4811,-1.4814,-1.4818,-1.4842,-1.4848,-1.4787,-1.4787,-1.4787,0,0,-1.4494,-1.4512,-1.4527,-1.4563,-1.458,-1.4606,-1.4595,-1.4623,-1.4643,-1.4643,-1.4679,-1.4692,-1.4718,-1.4758,-1.4777,-1.477,-1.4837,-1.4818,-1.482,-1.4822,-1.4845,-1.4851,-1.4856,-1.4789,-1.4788,-1.4788,0,0,-1.4531,-1.4547,-1.4576,-1.4593,-1.4618,-1.4628,-1.4635,-1.466,-1.4669,-1.4706,-1.4706,-1.473,-1.4776,-1.4794,-1.481,-1.4855,-1.4853,-1.4863,-1.4882,-1.4905,-1.491,-1.4914,-1.493,-1.4936,-1.4867,-1.4867,-1.4867,0,-1.4544,-1.4583,-1.4592,-1.462,-1.4636,-1.4637,-1.4667,-1.4683,-1.4716,-1.4727,-1.4719,-1.4777,-1.4794,-1.4839,-1.485,-1.4862,-1.4871,-1.4859,-1.4908,-1.4913,-1.4917,-1.4932,-1.4938,-1.4868,-1.4868,-1.4867,-1.4867,0,-1.4598,-1.4626,-1.4646,-1.4677,-1.4696,-1.4725,-1.4738,-1.4756,-1.476,-1.4771,-1.4809,-1.483,-1.486,-1.4871,-1.4875,-1.4917,-1.4912,-1.4906,-1.4892,-1.4924,-1.4938,-1.4944,-1.4869,-1.4869,-1.4868,-1.4868,0,0,-1.4641,-1.4676,-1.4683,-1.4697,-1.4725,-1.4747,-1.4777,-1.4806,-1.4821,-1.4844,-1.4869,-1.4908,-1.4904,-1.4921,-1.4927,-1.4947,-1.4982,-1.4939,-1.494,-1.4946,-1.5029,-1.5033,-1.5039,-1.4981,-1.4983,-1.4984,-1.5027,0,-1.4681,-1.4732,-1.4741,-1.4786,-1.4812,-1.4813,-1.4839,-1.486,-1.4871,-1.4895,-1.4909,-1.4936,-1.4928,-1.4938,-1.4958,-1.4973,-1.4998,-1.497,-1.5006,-1.5007,-1.4998,-1.5047,-1.5051,-1.509,-1.5033,-1.5034,-1.5034,0,-1.4734,-1.4757,-1.4805,-1.483,-1.4841,-1.4864,-1.4891,-1.4914,-1.4938,-1.4945,-1.4964,-1.4968,-1.5,-1.4985,-1.5029,-1.501,-1.5025,-1.5035,-1.5036,-1.504,-1.5022,-1.5051,-1.5103,-1.5109,-1.5043,-1.5043,-1.5042,0,-1.476,-1.4803,-1.4837,-1.485,-1.4879,-1.4895,-1.4909,-1.4931,-1.4948,-1.4973,-1.4984,-1.5012,-1.5028,-1.505,-1.5062,-1.5049,-1.5105,-1.5091,-1.5112,-1.5112,-1.5123,-1.5122,-1.5178,-1.5134,-1.5134,-1.5134,-1.5134,0,-1.4803,-1.4832,-1.4849,-1.4871,-1.4904,-1.4914,-1.4947,-1.496,-1.498,-1.5004,-1.5008,-1.5031,-1.5045,-1.507,-1.508,-1.5115,-1.5122,-1.5129,-1.5131,-1.5128,-1.5127,-1.5138,-1.5136,-1.5135,-1.5135,-1.5135,-1.5134,0,-1.4837,-1.485,-1.4887,-1.4912,-1.4919,-1.4943,-1.4965,-1.4986,-1.4997,-1.5028,-1.5036,-1.5055,-1.5085,-1.5099,-1.5136,-1.5142,-1.5182,-1.5183,-1.5174,-1.5175,-1.5195,-1.5193,-1.526,-1.5269,-1.5219,-1.5219,-1.5219,0,-1.4864,-1.4886,-1.4914,-1.493,-1.4943,-1.4969,-1.4986,-1.4998,-1.5016,-1.5045,-1.5062,-1.5092,-1.5117,-1.5165,-1.5182,-1.5211,-1.5212,-1.5233,-1.5216,-1.5213,-1.5212,-1.521,-1.5213,-1.5236,-1.5237,-1.5237,-1.5237,0,-1.491,-1.4915,-1.4939,-1.4966,-1.4986,-1.5008,-1.503,-1.5043,-1.5058,-1.5078,-1.5108,-1.5127,-1.5165,-1.5195,-1.5225,-1.524,-1.5241,-1.5243,-1.5249,-1.5246,-1.524,-1.5244,-1.5182,-1.5241,-1.5241,-1.524,-1.524,-1.524,-1.4941,-1.4961,-1.4983,-1.5011,-1.5028,-1.5048,-1.5069,-1.5083,-1.5108,-1.5139,-1.5145,-1.5177,-1.5201,-1.5241,-1.5257,-1.5283,-1.5278,-1.5287,-1.529,-1.5292,-1.5293,-1.5236,-1.5288,-1.5288,-1.5288,-1.5288,-1.5288,0,-1.4987,-1.5002,-1.5026,-1.5056,-1.5078,-1.5077,-1.51,-1.5119,-1.5147,-1.5168,-1.5192,-1.5227,-1.5257,-1.5276,-1.5306,-1.5323,-1.5325,-1.5331,-1.5329,-1.5333,-1.5295,-1.5287,-1.5329,-1.5329,-1.5329,-1.5329,-1.5329,-1.5329,-1.5014,-1.5048,-1.5056,-1.5098,-1.5113,-1.5144,-1.5157,-1.5176,-1.5193,-1.5232,-1.5256,-1.5268,-1.529,-1.5321,-1.5348,-1.5353,-1.5364,-1.537,-1.5375,-1.534,-1.5335,-1.5331,-1.5323,-1.5372,-1.5372,-1.541,-1.5411,-1.5411]},{"header":{"parameterUnit":"m.s-1","parameterCategory":1,"la1":30.2991,"la2":30.254,"lo1":-89.0895,"lo2":-89.0444,"dy":0.0017,"dx":0.0017,"nx":28,"ny":28,"refTime":"2024-03-11T21:00:00:Z","depth":0,"parameterNumber":3,"parameterNumberName":"V-component_of_WINDS"},"data":[0,0,0,0,0,0,0,0,0,0,0,0,0,0,0,0,0,0,0,0,0,0,0,0,0,0,0,0,0,0,0,0,0,0,0,0,0,0,0,0,0,0,0,0,0,0,0,0,0,0,0,0,0,0,0,0,0,0,3.1572,3.1573,0,3.1638,3.1639,3.1639,3.1647,3.1646,3.1645,3.1645,3.171,3.1712,3.1715,0,0,0,0,0,0,0,0,0,0,0,0,0,3.145,3.1452,3.1572,3.1573,3.1573,3.1638,3.1639,3.164,3.1647,3.1646,3.1645,3.1644,3.1709,3.1712,3.1715,0,0,0,0,0,0,0,0,0,0,0,0,0,3.1508,3.1453,3.1572,3.1585,3.1587,3.1638,3.1639,3.164,3.1647,3.1646,3.1645,3.1644,3.1708,3.1712,3.1715,3.1757,0,0,3.1726,3.1727,0,0,0,0,0,0,0,0,3.1505,3.1512,3.1582,3.1584,3.1586,3.1633,3.162,3.1679,3.1647,3.1624,3.1645,3.1644,3.1685,3.169,3.1705,3.176,3.1763,3.1726,3.1728,3.173,3.1731,0,0,0,0,0,0,0,3.1501,3.151,3.1598,3.1583,3.1586,3.1587,3.1594,3.1631,3.1659,3.1626,3.1627,3.1634,3.1686,3.1701,3.1706,3.1764,3.1726,3.1729,3.1731,3.1733,3.1855,3.1856,0,0,0,0,0,0,3.1494,3.1506,3.1596,3.16,3.1542,3.159,3.1598,3.1619,3.1659,3.1664,3.1635,3.1635,3.1696,3.1702,3.1709,3.176,3.173,3.1733,3.1735,3.1854,3.1856,3.1857,0,0,0,0,0,0,3.1492,3.1502,3.1593,3.1553,3.1565,3.1593,3.1617,3.1621,3.1636,3.1666,3.1671,3.1646,3.1695,3.1704,3.1745,3.1762,3.1735,3.1738,3.1853,3.1855,3.1856,3.1862,0,0,0,0,0,0,3.1488,3.1501,3.1518,3.1554,3.1567,3.1629,3.1618,3.1623,3.1643,3.1642,3.1677,3.1682,3.1695,3.174,3.1748,3.1767,3.1741,3.1851,3.1854,3.1856,3.1861,3.1864,3.1867,0,0,0,0,0,3.1484,3.1517,3.1519,3.153,3.1588,3.163,3.1637,3.1653,3.1644,3.1661,3.168,3.1681,3.1759,3.1744,3.1754,3.1773,3.185,3.1853,3.1855,3.1859,3.1863,3.1867,0,0,0,0,0,0,3.1482,3.1522,3.1524,3.157,3.1596,3.1631,3.1652,3.1656,3.1685,3.1684,3.1701,3.1708,3.1749,3.1765,3.1747,3.1815,3.1804,3.1808,3.1803,3.1807,3.181,3.1805,3.1744,0,0,0,0,0,3.1486,3.1517,3.155,3.1587,3.1601,3.1624,3.1643,3.1652,3.168,3.1691,3.1713,3.1739,3.177,3.1789,3.1819,3.1863,3.187,3.1881,3.1884,3.1887,3.1891,3.1915,3.192,3.1865,3.1865,3.1865,0,0,3.1497,3.1522,3.1541,3.1587,3.1609,3.164,3.1634,3.1667,3.1689,3.1696,3.1736,3.1753,3.1784,3.1826,3.1846,3.1841,3.1907,3.189,3.1892,3.1894,3.1918,3.1923,3.1928,3.1867,3.1867,3.1866,0,0,3.1531,3.1554,3.1587,3.1609,3.1642,3.1658,3.1666,3.17,3.1712,3.1752,3.1758,3.1785,3.1837,3.1858,3.1876,3.1919,3.1921,3.1928,3.1944,3.1967,3.1971,3.1975,3.199,3.1995,3.1931,3.1931,3.1931,0,3.1539,3.1587,3.1603,3.1637,3.1657,3.1665,3.1698,3.1718,3.1759,3.1772,3.1766,3.1832,3.1853,3.1901,3.1911,3.1925,3.1934,3.1924,3.197,3.1974,3.1978,3.1992,3.1997,3.1932,3.1932,3.1932,3.1932,0,3.1595,3.1628,3.1651,3.1691,3.1714,3.1747,3.1767,3.1788,3.1795,3.1811,3.1852,3.1878,3.1913,3.1925,3.1932,3.1974,3.1969,3.1966,3.1955,3.1983,3.1997,3.2002,3.1933,3.1933,3.1933,3.1932,0,0,3.163,3.1679,3.1687,3.1705,3.1743,3.1768,3.1801,3.1836,3.1853,3.1881,3.1909,3.1953,3.195,3.197,3.198,3.2,3.2032,3.1995,3.1996,3.2,3.2078,3.208,3.2086,3.2033,3.2035,3.2035,3.2076,0,3.1669,3.1729,3.1744,3.1795,3.1825,3.1833,3.1862,3.1887,3.1903,3.193,3.1947,3.1978,3.1972,3.1984,3.2005,3.2024,3.2047,3.2021,3.2059,3.206,3.2051,3.2094,3.2096,3.2132,3.2081,3.2082,3.2083,0,3.1722,3.1752,3.1806,3.1839,3.1852,3.1878,3.1911,3.1937,3.1966,3.1975,3.1998,3.2006,3.2039,3.2027,3.2073,3.2054,3.2071,3.2082,3.2084,3.2088,3.2073,3.2098,3.2145,3.215,3.2091,3.2091,3.209,0,3.1742,3.1795,3.1834,3.185,3.1889,3.1907,3.1924,3.1952,3.1972,3.2,3.2013,3.2045,3.2063,3.2087,3.2102,3.2092,3.2147,3.2136,3.2156,3.2155,3.2167,3.2166,3.2216,3.2178,3.2178,3.2178,3.2178,0,3.1783,3.1816,3.1844,3.1868,3.1904,3.1921,3.1957,3.1974,3.1999,3.2026,3.2034,3.2059,3.2078,3.2106,3.2118,3.2154,3.2162,3.217,3.2173,3.217,3.2168,3.218,3.2178,3.2179,3.2179,3.2179,3.2178,0,3.1812,3.1832,3.1875,3.1909,3.1918,3.1943,3.1972,3.1995,3.2011,3.2045,3.2054,3.2079,3.2111,3.2129,3.217,3.2178,3.2219,3.222,3.2209,3.221,3.2229,3.2227,3.2289,3.2297,3.2253,3.2254,3.2254,0,3.1837,3.1862,3.1899,3.1918,3.1936,3.1966,3.1986,3.2004,3.2025,3.2059,3.2078,3.2111,3.2139,3.219,3.2211,3.2242,3.2244,3.2264,3.2249,3.2245,3.2244,3.2243,3.2245,3.2266,3.2267,3.2267,3.2267,0,3.1879,3.1888,3.1917,3.195,3.1975,3.2001,3.2028,3.2042,3.2064,3.2087,3.2121,3.2142,3.2184,3.2216,3.2249,3.2266,3.227,3.2272,3.2278,3.2274,3.2267,3.2271,3.2216,3.227,3.227,3.227,3.227,3.2269,3.1906,3.1929,3.1959,3.1991,3.2013,3.2037,3.2061,3.208,3.2108,3.2144,3.2153,3.2188,3.2215,3.226,3.2278,3.2305,3.2301,3.231,3.2313,3.2314,3.2315,3.2263,3.2311,3.2311,3.2311,3.2311,3.2311,0,3.1949,3.1968,3.1998,3.2035,3.206,3.2063,3.2092,3.2113,3.2144,3.217,3.2197,3.2235,3.2267,3.229,3.2322,3.234,3.2342,3.2347,3.2346,3.235,3.2317,3.2308,3.2345,3.2345,3.2345,3.2345,3.2345,3.2345,3.1974,3.2012,3.2024,3.2074,3.2093,3.2128,3.2144,3.2167,3.2187,3.223,3.2257,3.2272,3.2296,3.233,3.2359,3.2365,3.2376,3.2381,3.2387,3.2356,3.2352,3.2349,3.234,3.2383,3.2383,3.2418,3.2418,3.2418]}]]